Hourly Data Report for January 16, 2019

TORONTO CITY
ONTARIO
Current Station Operator: ECCC - MSC

43°40'00.000" N
79°24'00.000" W
112.50 m
6158355
71508
XTO

Download Data

Hourly Data (January 2019)
Hourly Data Report for January 16, 2019
TIME
LST
Temp Definition
°C
Dew Point Definition
°C
Rel Hum Definition
%
Precip. Amount Definition
mm

Wind Dir Definition
10's deg

Wind Spd Definition
km/h
Visibility Definition
km
Stn Press Definition
kPa
Hmdx Definition


Wind Chill Definition


Weather Definition


00:00 -1.2 -4.8 77 0.0 LegendMM LegendMM   99.89     LegendNANA
01:00 -1.6 -3.4 88 0.0 LegendMM LegendMM   99.86     LegendNANA
02:00 -1.4 -4.6 79 0.0 LegendMM LegendMM   99.84     LegendNANA
03:00 -1.6 -4.5 81 0.0 LegendMM LegendMM   99.83     LegendNANA
04:00 -1.5 -4.5 80 0.0 LegendMM LegendMM   99.81     LegendNANA
05:00 -1.6 -4.3 82 0.0 LegendMM LegendMM   99.80     LegendNANA
06:00 -1.3 -3.8 83 0.0 LegendMM LegendMM   99.83     LegendNANA
07:00 -0.8 -3.3 84 0.0 LegendMM LegendMM   99.86     LegendNANA
08:00 -0.4 -3.0 83 0.0 LegendMM LegendMM   99.94     LegendNANA
09:00 0.0 -2.3 85 0.0 LegendMM LegendMM   100.01     LegendNANA
10:00 -0.3 -7.3 59 0.8 LegendMM LegendMM   100.18     LegendNANA
11:00 -1.4 -8.9 56 0.0 LegendMM LegendMM   100.37     LegendNANA
12:00 -1.4 -9.7 53 0.0 LegendMM LegendMM   100.40     LegendNANA
13:00 -2.1 -12.4 45 0.0 LegendMM LegendMM   100.50     LegendNANA
14:00 -3.8 -13.1 48 0.0 LegendMM LegendMM   100.63     LegendNANA
15:00 -4.8 -12.7 54 0.0 LegendMM LegendMM   100.75     LegendNANA
16:00 -5.8 -13.6 54 0.0 LegendMM LegendMM   100.88     LegendNANA
17:00 -6.5 -13.9 56 0.0 LegendMM LegendMM   101.00     LegendNANA
18:00 -7.4 -14.5 57 0.0 LegendMM LegendMM   101.15     LegendNANA
19:00 -7.6 -15.1 55 0.0 LegendMM LegendMM   101.22     LegendNANA
20:00 -7.9 -15.4 55 0.0 LegendMM LegendMM   101.27     LegendNANA
21:00 -8.4 -15.9 54 0.0 LegendMM LegendMM   101.31     LegendNANA
22:00 -8.9 -15.6 58 0.0 LegendMM LegendMM   101.37     LegendNANA
23:00 -9.2 -15.8 59 0.0 LegendMM LegendMM   101.41     LegendNANA

Notes on Data Quality.

Legend

  • E = Estimated
  • M = Missing
  • NA = Not Available*
  • [empty] = Indicates an unobserved value
Date modified: